Powrót do katalogu

SL-12 R/B(2)

AktywnyMEO
NORAD 19505·ROCKET BODY·🇷🇺 Russia

Wystrzelony Sep 16, 1988 z Baikonur Cosmodrome

Loading…

Następne Przeloty (najbliższe 24 godziny)

TLE

ŚwieżeSource: Space-Track

Epoka: Sep 13, 2026, 03:39 UTC

1 19505U 88085E   26256.15260067 -.00000047  00000-0  00000-0 0  9999
2 19505  65.1496 310.1147 0012235 210.6178 151.1181  2.13369178295923

Śledź SL-12 R/B(2) w czasie rzeczywistym z AllMySat

Download on the App Store